Regional Weather Roundup
Issued by NWS

Home | Current Version | Previous Version | Text Only | Print | Product List | Glossary Off
Versions: 1 2 3 4 5 6 7 8 9 10 11 12 13 14 15 16 17 18 19 20 21 22 23 24 25 26 27 28 29 30 31 32 33 34 35 36 37 38 39 40 41 42 43 44 45 46 47 48 49 50

301
ASUS43 KIND 222109
RWRIN

WEATHER ROUNDUP FOR INDIANA
NATIONAL WEATHER SERVICE INDIANAPOLIS IN
500 PM EDT THU JUN 22 2017

NOTE: "FAIR" INDICATES FEW OR NO CLOUDS BELOW 12,000 FEET WITH NO
SIGNIFICANT WEATHER AND/OR OBSTRUCTIONS TO VISIBILITY.

* - STATION DOES NOT REPORT WEATHER SUCH AS PRECIPITATION OR FOG.

+ - STATION NOT QUALITY CONTROLLED BY THE NATIONAL WEATHER SERVICE.
    USE DATA WITH CAUTION...ESPECIALLY DEWPOINT AND RELATIVE
    HUMIDITY OBSERVATIONS.

INZ001>003-010>013-019-020-222200-
NORTHWEST INDIANA

CITY           SKY/WX    TMP DP  RH WIND       PRES   REMARKS
GARY /AIRPORT/ PTSUNNY   88  68  51 S12G30    29.78F
KNOX *+        CLOUDY    82  59  44 SW12G18   29.82S
LA PORTE +     PTSUNNY   84  69  61 S14G21    29.82F
MICHIGAN CITY+ PTSUNNY   86  70  58 S14G22    29.80F
MONTICELLO +   CLOUDY    80  70  72 S17G25    29.84S
RENSSELAER +   CLOUDY    82  68  61 S20G25    29.83S
VALPARAISO     CLOUDY    86  71  60 S17       29.81F

$$

LMZ046-743>745-222200-
SOUTHERN LAKE MICHIGAN

STATION/POSITION TIME  TEMP    WIND        PRES    WAVE
                       AIR SEA DIR/SP/G            HT
                 (UTC) (F)     (DEG/KT/KT) (MB)    (FT)
BURNS HARBOR     2040   85     190/ 17/ 23 1008.8F
MICHIGAN CITY    2040   83     170/ 19/ 22   N/A
5NW MICH CITY    2100   78 68  200/ 14/ 19   N/A     1

$$

INZ004-005-014>016-021>024-222200-
NORTH CENTRAL INDIANA

CITY           SKY/WX    TMP DP  RH WIND       PRES   REMARKS
ELKHART        LGT RAIN  79  70  73 S9G17     29.83F
GOSHEN         CLOUDY    84  68  58 SW10      29.84F
LOGANSPORT +   CLOUDY    81  68  65 S15       29.86F
PERU/GRISSOM   PTSUNNY   84  71  64 S16G23    29.84F
ROCHESTER +    MOSUNNY   86  68  54 SW16G23   29.85F
SOUTH BEND     PTSUNNY   83  72  69 S16       29.82F
WARSAW +       CLOUDY    82  68  61 SW9G16    29.84F

$$

INZ006>009-017-018-025>027-222200-
NORTHEAST INDIANA

CITY           SKY/WX    TMP DP  RH WIND       PRES   REMARKS
AUBURN +       PTSUNNY   86  68  54 SW13      29.86F
FORT WAYNE     MOSUNNY   86  68  54 SW25G32   29.86F
KENDALLVILLE + CLOUDY    86  69  57 SW15G21   29.85F

$$

INZ028-029-035-036-043>045-051>053-222200-
WEST CENTRAL INDIANA

CITY           SKY/WX    TMP DP  RH WIND       PRES   REMARKS
CRAWFORDSVL +  PTSUNNY   78  70  76 S20G26    29.87F
GREENCASTLE +  CLOUDY    77  68  73 S13G21    29.89F
LAFAYETTE      PTSUNNY   80  73  79 S15G24    29.84F
TERRE HAUTE    CLOUDY    78  69  73 S21G28    29.86F

$$

INZ030>032-037>040-046>048-054>057-064-065-222200-
CENTRAL INDIANA

CITY           SKY/WX    TMP DP  RH WIND       PRES   REMARKS
CP ATTERBURY + CLOUDY    77  70  78 S13G20    29.92F
COLUMBUS       CLOUDY    75  68  78 S13       29.93F
FISHERS *+     CLOUDY    79  72  78 S22       29.89
FRANKFORT +    CLOUDY    83  74  72 SW13G18   29.89S
GREENWOOD *+   CLOUDY    80  67  65 S17G24    29.92S
INDIANAPOLIS   CLOUDY    79  70  74 S23G32    29.88F
-EAGLE CREEK   MOSUNNY   80  69  69 S15G21    29.88F
KOKOMO +       PTSUNNY   84  70  62 S16       29.87F
MARION +       PTSUNNY   82  68  61 S18G24    29.89S
MT COMFORT *+  MOSUNNY   82  68  61 S16G23    29.89F
SHELBYVILLE    LGT RAIN  78  68  71 S20G29    29.91S
ZIONSVILLE +   CLOUDY    79  71  76 S20       29.89S

$$

INZ033-034-041-042-049-050-058-059-222200-
EAST CENTRAL INDIANA

CITY           SKY/WX    TMP DP  RH WIND       PRES   REMARKS
MUNCIE         MOSUNNY   85  67  54 S16G30    29.89S
RICHMOND +     CLOUDY    79  70  73 SW16      29.94F

$$

INZ060-061-067>069-081>083-085>088-222200-
SOUTHWEST INDIANA

CITY           SKY/WX    TMP DP  RH WIND       PRES   REMARKS
EVANSVILLE     LGT RAIN  74  71  91 SE13G18   29.86F
HUNTINGBURG *+ LGT RAIN  73  71  93 S14G22    29.89F
WASHINGTON +   CLOUDY    73  71  93 SE8       29.88F

$$

INZ062-063-066-070>080-084-089>092-222200-
SOUTH CENTRAL AND SOUTHEAST INDIANA

CITY           SKY/WX    TMP DP  RH WIND       PRES   REMARKS
BEDFORD +      CLOUDY    72  68  88 SE8       29.91F
BLOOMINGTON    CLOUDY    76  68  76 S12       29.91F
MADISON *+     CLOUDY    73  68  83 S6G16     29.97F
NORTH VERNON + CLOUDY    75  68  78 S14       29.94F

$$





USA.gov is the U.S. government's official web portal to all federal, state and local government web resources and services.